Weather History for Fayetteville, NC

Change the Weather History Date:

Sunday, January 19, 2014

  Actual Average Record
Temperature  
Mean Temperature 42 °F 44 °F  
Max Temperature 56 °F 54 °F 76 °F (2001)
Min Temperature 28 °F 33 °F 7 °F (1994)
Degree Days  
Heating Degree Days 23 21  
Month to date heating degree days 422 416  
Since 1 July heating degree days 1435 1475  
Cooling Degree Days 0 0  
Month to date cooling degree days 0 0  
Year to date cooling degree days 0 0  
Moisture  
Dew Point 23 °F    
Average Humidity 47    
Maximum Humidity 64    
Minimum Humidity 30    
Precipitation  
Precipitation 0.01 in 0.10 in 1.34 in (1987)
Month to date precipitation 3.77 1.83  
Year to date precipitation 3.77 1.83  
Sea Level Pressure  
Sea Level Pressure 29.96 in    
Wind  
Wind Speed 9 mph (SW)    
Max Wind Speed 20 mph    
Max Gust Speed 24 mph    
Visibility 10 miles    
Events      
T = Trace of Precipitation, MM = Missing Value Source: NWS Daily Summary

Daily Weather History Graph

Daily Weather History Graph

Search for Another Location

Airport:

Trip Planner

Search our weather history database for the weather conditions in past years. The results will help you decide how hot, cold, wet, or windy it might be!

Date:

Astronomy

Jan. 19, 2014 Rise Set
Actual Time 7:21 AM EST 5:31 PM EST
Civil Twilight 6:54 AM EST 5:58 PM EST
Nautical Twilight 6:23 AM EST 6:29 PM EST
Astronomical Twilight 5:53 AM EST 6:59 PM EST
Moon 8:57 PM EST (1/19) 8:59 AM EST (1/19)
Length of Visible Light 11h 04m
Length of Day
10h 09m
Waning Gibbous, 89% of the Moon is Illuminated
Jan 19
Waning Gibbous
Jan 24
Last Quarter
Jan 30
New
Feb 6
First Quarter
Feb 14
Full

Hourly Weather History & Observations

Time (EST) Temp. Windchill Dew Point Humidity Pressure Visibility Wind Dir Wind Speed Gust Speed Precip Events Conditions
12:53 AM 30.9 °F 25.2 °F 19.9 °F 64% 30.03 in 10.0 mi South 5.8 mph - N/A   Partly Cloudy
1:53 AM 30.9 °F 24.3 °F 19.9 °F 64% 30.02 in 10.0 mi SSW 6.9 mph - N/A   Clear
2:53 AM 32.0 °F 24.2 °F 19.9 °F 61% 30.01 in 10.0 mi SSW 9.2 mph - N/A   Clear
3:53 AM 34.0 °F 27.2 °F 19.9 °F 56% 29.99 in 10.0 mi SSW 8.1 mph - N/A   Mostly Cloudy
4:53 AM 34.0 °F 27.2 °F 19.0 °F 54% 29.97 in 10.0 mi SSW 8.1 mph - N/A   Mostly Cloudy
5:53 AM 36.0 °F 29.6 °F 19.9 °F 52% 29.96 in 10.0 mi SSW 8.1 mph - N/A   Overcast
6:53 AM 37.0 °F 31.0 °F 19.9 °F 50% 29.96 in 10.0 mi South 8.1 mph - N/A   Overcast
7:53 AM 39.0 °F 32.3 °F 19.0 °F 45% 29.97 in 10.0 mi SSW 10.4 mph - N/A   Overcast
8:53 AM 39.9 °F 32.9 °F 21.0 °F 47% 29.99 in 10.0 mi SW 11.5 mph - N/A   Overcast
9:53 AM 39.0 °F 33.4 °F 28.9 °F 67% 30.00 in 10.0 mi SSW 8.1 mph - 0.01 in   Mostly Cloudy
10:53 AM 46.0 °F 40.2 °F 26.1 °F 46% 30.00 in 10.0 mi SW 12.7 mph - N/A   Clear
11:53 AM 48.9 °F - 24.1 °F 38% 29.97 in 10.0 mi West 13.8 mph - N/A   Clear
12:53 PM 52.0 °F - 24.1 °F 34% 29.94 in 10.0 mi West 11.5 mph 19.6 mph N/A   Clear
1:53 PM 54.0 °F - 24.1 °F 31% 29.91 in 10.0 mi WSW 15.0 mph 20.7 mph N/A   Clear
2:53 PM 55.9 °F - 24.1 °F 29% 29.91 in 10.0 mi West 13.8 mph - N/A   Clear
3:53 PM 55.9 °F - 24.1 °F 29% 29.91 in 10.0 mi WSW 15.0 mph 19.6 mph N/A   Clear
4:53 PM 54.0 °F - 24.1 °F 31% 29.93 in 10.0 mi WSW 11.5 mph - N/A   Clear
5:53 PM 50.0 °F - 25.0 °F 38% 29.94 in 10.0 mi West 6.9 mph - N/A   Clear
6:53 PM 46.9 °F - 26.1 °F 44% 29.95 in 10.0 mi WSW 4.6 mph - N/A   Clear
7:53 PM 46.9 °F - 25.0 °F 42% 29.96 in 10.0 mi SW 4.6 mph - N/A   Clear
8:53 PM 41.0 °F 38.0 °F 26.1 °F 55% 29.96 in 10.0 mi SSW 4.6 mph - N/A   Clear
9:53 PM 37.0 °F 31.6 °F 27.0 °F 67% 29.97 in 10.0 mi SW 6.9 mph - N/A   Clear
10:53 PM 39.0 °F 33.4 °F 27.0 °F 62% 29.96 in 10.0 mi SSW 8.1 mph - N/A   Clear
11:53 PM 39.0 °F 33.4 °F 28.0 °F 65% 29.94 in 10.0 mi SW 8.1 mph - N/A   Clear